Tracking 20626 objects as of 10-Apr-2020
HD Live streaming from Space Station
objects crossing your sky now

PEGASUS DEB

Track PEGASUS DEB now!
10-day predictions


NORAD ID: 24581
Int'l Code: 1994-029YH
Perigee: 578.6 km
Apogee: 1,787.8 km
Inclination: 81.6 °
Period: 108.9 minutes
Semi major axis: 7554 km
RCS: 0.0163 m2 (small)
Launch date: May 19, 1994
Source: United States (US)
Launch site: AIR FORCE WESTERN TEST RANGE (AFWTR)

Note: This is SATELLITE DEBRIS
aabbcc
Your satellite tracking list
Your tracking list is empty




NASA's NSSDC Master Catalog

Two Line Element Set (TLE):
1 24581U 94029YH  20100.88856109 +.00000460 +00000-0 +18804-3 0  9996
2 24581 081.5503 083.6559 0800370 313.7365 052.5512 13.22278964135920
Source of the keplerian elements: AFSPC